CW1784 Weather Reports


time (UTC)temp
F
wind
direction
speed
knots
gust
knots
rain 1hr
in
rain 24hr
in
rain mn
in
humidity
%
barometer
mb
20260506203516 54 0 0.0 0.0 0.00 0.00 0.00 54 1011.2
20260506203048 54 0 0.0 0.0 0.00 0.00 0.00 53 1011.1
20260506202515 54 0 0.0 0.0 0.00 0.00 0.00 54 1011.2
20260506202015 54 0 0.0 0.0 0.00 0.00 0.00 56 1011.1
20260506201528 54 0 0.0 0.0 0.00 0.00 0.00 56 1011.1
20260506201012 54 0 0.0 0.0 0.00 0.00 0.00 55 1011.1
20260506200516 54 0 0.0 0.0 0.00 0.00 0.00 55 1011.0
20260506200043 55 0 0.0 0.0 0.00 0.00 0.00 54 1011.0
20260506195516 55 0 0.0 0.0 0.00 0.00 0.00 55 1010.9
20260506195016 55 0 0.0 0.0 0.00 0.00 0.00 54 1010.9
20260506194532 55 0 0.0 0.0 0.00 0.00 0.00 53 1010.8
20260506194015 56 0 0.0 0.0 0.00 0.00 0.00 52 1010.8
20260506193513 57 0 0.0 0.0 0.00 0.00 0.00 51 1010.8
20260506193029 57 0 0.0 0.0 0.00 0.00 0.00 49 1010.7
20260506192515 57 0 0.0 0.0 0.00 0.00 0.00 49 1010.7
20260506192014 58 0 0.0 0.0 0.00 0.00 0.00 48 1010.7
20260506191531 58 0 0.0 0.0 0.00 0.00 0.00 46 1010.8
20260506191015 59 0 0.0 0.0 0.00 0.00 0.00 45 1010.8
20260506190514 59 0 0.0 0.0 0.00 0.00 0.00 42 1010.7
20260506190036 60 0 0.0 0.0 0.00 0.00 0.00 41 1010.7
20260506185515 60 0 0.0 0.9 0.00 0.00 0.00 38 1010.7
20260506185015 60 0 0.0 0.9 0.00 0.00 0.00 37 1010.6
20260506184528 60 0 0.0 2.6 0.00 0.00 0.00 40 1010.7
20260506184015 60 0 0.0 2.6 0.00 0.00 0.00 38 1010.6
20260506183516 60 156 0.0 2.6 0.00 0.00 0.00 40 1010.7
20260506183030 61 0 0.0 1.7 0.00 0.00 0.00 41 1010.4
20260506182512 60 0 0.0 4.3 0.00 0.00 0.00 38 1010.5
20260506182021 60 0 0.9 4.3 0.00 0.00 0.00 41 1010.5
20260506181534 61 165 0.9 6.1 0.00 0.00 0.00 42 1010.5
20260506181013 61 0 0.0 6.1 0.00 0.00 0.00 39 1010.5
20260506180516 62 140 1.7 6.1 0.00 0.00 0.00 39 1010.5
20260506180030 62 150 2.6 5.2 0.00 0.00 0.00 39 1010.6
20260506175512 62 191 2.6 5.2 0.00 0.00 0.00 37 1010.4
20260506175015 62 0 1.7 6.1 0.00 0.00 0.00 38 1010.6
20260506174530 62 144 2.6 6.1 0.00 0.00 0.00 38 1010.6
20260506174014 62 184 1.7 5.2 0.00 0.00 0.00 38 1010.6
20260506173515 62 115 0.9 5.2 0.00 0.00 0.00 38 1010.7
20260506173037 62 0 0.0 6.1 0.00 0.00 0.00 39 1010.7
20260506172515 62 151 1.7 6.1 0.00 0.00 0.00 41 1010.7
20260506172013 63 164 1.7 6.1 0.00 0.00 0.00 38 1010.7
20260506171532 62 92 1.7 6.1 0.00 0.00 0.00 38 1010.7
20260506171013 63 146 0.9 6.1 0.00 0.00 0.00 41 1010.7
20260506170516 63 141 1.7 6.1 0.00 0.00 0.00 39 1010.7
20260506170032 63 360 0.9 5.2 0.00 0.00 0.00 39 1010.7
20260506165513 63 0 0.0 7.0 0.00 0.00 0.00 41 1010.8
20260506165014 63 117 1.7 7.0 0.00 0.00 0.00 40 1010.8
20260506164529 63 179 2.6 7.0 0.00 0.00 0.00 40 1010.9
20260506164013 63 0 0.9 7.0 0.00 0.00 0.00 39 1010.7
20260506163515 63 124 2.6 7.0 0.00 0.00 0.00 39 1010.8
20260506163050 63 118 2.6 6.1 0.00 0.00 0.00 39 1010.8
20260506162516 64 123 0.0 4.3 0.00 0.00 0.00 43 1010.8
20260506162017 64 0 2.6 6.1 0.00 0.00 0.00 38 1010.8
20260506161530 63 94 0.9 6.1 0.00 0.00 0.00 40 1010.8
20260506161015 64 0 2.6 6.1 0.00 0.00 0.00 41 1010.8
20260506160512 64 164 0.9 6.1 0.00 0.00 0.00 42 1010.9
20260506160030 64 136 2.6 6.1 0.00 0.00 0.00 44 1010.9
20260506155515 65 156 2.6 7.8 0.00 0.00 0.00 40 1010.7
20260506155015 65 170 1.7 7.8 0.00 0.00 0.00 40 1010.8
20260506154538 65 210 2.6 7.8 0.00 0.00 0.00 41 1010.8
20260506154013 65 206 3.5 7.0 0.00 0.00 0.00 41 1010.9
20260506153516 65 112 3.5 7.0 0.00 0.00 0.00 41 1011.1
20260506153032 65 157 3.5 6.1 0.00 0.00 0.00 42 1011.1
20260506152515 65 215 0.0 7.0 0.00 0.00 0.00 42 1011.2
20260506152016 66 224 0.9 7.0 0.00 0.00 0.00 43 1011.2
20260506151539 65 198 2.6 7.0 0.00 0.00 0.00 44 1011.2
20260506151016 64 175 0.9 7.8 0.00 0.00 0.00 46 1011.3
20260506150518 62 194 2.6 7.8 0.00 0.00 0.00 45 1011.2
20260506150032 62 156 1.7 7.0 0.00 0.00 0.00 44 1011.4
20260506145514 63 194 0.0 5.2 0.00 0.00 0.00 44 1011.5
20260506145016 65 192 1.7 5.2 0.00 0.00 0.00 42 1011.6
20260506144531 65 0 0.0 9.6 0.00 0.00 0.00 41 1011.6
20260506144015 66 0 1.7 9.6 0.00 0.00 0.00 39 1011.6
20260506143513 66 167 5.2 9.6 0.00 0.00 0.00 41 1011.7
20260506143031 66 0 1.7 7.8 0.00 0.00 0.00 38 1011.6
20260506142513 65 183 1.7 7.8 0.00 0.00 0.00 43 1011.7
20260506142019 65 150 0.9 7.0 0.00 0.00 0.00 42 1011.9
20260506141530 65 85 2.6 7.8 0.00 0.00 0.00 42 1011.7
20260506141020 66 0 3.5 7.8 0.00 0.00 0.00 45 1011.8
20260506140513 65 171 1.7 7.0 0.00 0.00 0.00 41 1011.8
20260506140034 66 0 1.7 7.8 0.00 0.00 0.00 44 1011.9
20260506135518 65 143 4.3 8.7 0.00 0.00 0.00 40 1012.0
20260506135020 66 74 4.3 8.7 0.00 0.00 0.00 41 1012.1
20260506134531 66 182 1.7 6.1 0.00 0.00 0.00 46 1012.0
20260506134017 66 0 1.7 6.1 0.00 0.00 0.00 41 1012.0
20260506133516 66 0 1.7 7.8 0.00 0.00 0.00 40 1012.2
20260506133029 66 182 2.6 7.8 0.00 0.00 0.00 44 1012.1
20260506132515 67 173 0.0 7.8 0.00 0.00 0.00 44 1012.2
20260506132012 67 171 1.7 7.8 0.00 0.00 0.00 43 1012.3
20260506131535 66 0 0.9 7.0 0.00 0.00 0.00 37 1012.4
20260506131015 67 192 2.6 7.0 0.00 0.00 0.00 43 1012.3
20260506130517 66 0 0.0 5.2 0.00 0.00 0.00 45 1012.4
20260506130030 65 11 0.0 5.2 0.00 0.00 0.00 42 1012.4
20260506125514 66 0 0.9 6.1 0.00 0.00 0.00 41 1012.6
20260506125013 65 172 2.6 6.1 0.00 0.00 0.00 46 1012.6
20260506124532 64 171 0.9 6.1 0.00 0.00 0.00 49 1012.7
20260506124014 63 88 0.9 4.3 0.00 0.00 0.00 44 1012.8
20260506123515 65 0 0.0 7.0 0.00 0.00 0.00 51 1012.8
20260506123032 65 149 0.9 7.0 0.00 0.00 0.00 44 1012.9
20260506122515 64 141 3.5 7.0 0.00 0.00 0.00 45 1013.0
20260506122013 62 153 0.0 5.2 0.00 0.00 0.00 46 1012.9
20260506121529 63 0 0.9 6.1 0.00 0.00 0.00 47 1013.1
20260506121015 65 255 1.7 6.1 0.00 0.00 0.00 47 1013.0
20260506120515 64 216 1.7 7.8 0.00 0.00 0.00 47 1013.1
20260506120028 63 249 2.6 7.8 0.00 0.00 0.00 51 1013.1
20260506115514 62 0 2.6 7.8 0.00 0.00 0.00 53 1013.2
20260506115015 61 0 0.0 4.3 0.00 0.00 0.00 49 1013.2
20260506114530 60 0 0.0 5.2 0.00 0.00 0.00 46 1013.3
20260506114014 59 132 1.7 5.2 0.00 0.00 0.00 52 1013.3
20260506113513 59 123 0.9 5.2 0.00 0.00 0.00 51 1013.3
20260506113030 62 0 0.0 4.3 0.00 0.00 0.00 49 1013.3
20260506112518 63 0 0.9 4.3 0.00 0.00 0.00 48 1013.5
20260506112014 61 0 0.9 5.2 0.00 0.00 0.00 51 1013.4
20260506111533 63 281 0.9 5.2 0.00 0.00 0.00 45 1013.4
20260506111013 62 333 1.7 3.5 0.00 0.00 0.00 49 1013.4
20260506110512 61 44 0.0 4.3 0.00 0.00 0.00 53 1013.5
20260506110031 61 23 0.0 4.3 0.00 0.00 0.00 47 1013.5
20260506105512 61 334 1.7 7.0 0.00 0.00 0.00 49 1013.5
20260506105016 62 0 1.7 7.0 0.00 0.00 0.00 50 1013.6
20260506104528 63 126 1.7 6.1 0.00 0.00 0.00 50 1013.6
20260506104016 64 324 0.9 4.3 0.00 0.00 0.00 48 1013.5
20260506103513 62 0 0.0 4.3 0.00 0.00 0.00 51 1013.6
20260506103028 63 0 1.7 4.3 0.00 0.00 0.00 51 1013.7
20260506102516 61 0 0.9 6.1 0.00 0.00 0.00 53 1013.7
20260506102015 62 157 1.7 6.1 0.00 0.00 0.00 49 1013.7
20260506101532 61 176 0.9 5.2 0.00 0.00 0.00 53 1013.8
20260506101013 60 0 0.9 4.3 0.00 0.00 0.00 53 1013.8
20260506100513 60 37 0.0 3.5 0.00 0.00 0.00 52 1013.8
20260506100031 60 66 0.9 6.1 0.00 0.00 0.00 51 1013.8
20260506095513 60 0 0.9 6.1 0.00 0.00 0.00 55 1013.8
20260506095018 59 146 0.9 6.1 0.00 0.00 0.00 56 1013.9
20260506094532 61 150 0.9 6.1 0.00 0.00 0.00 53 1013.8
20260506094014 61 0 0.0 5.2 0.00 0.00 0.00 55 1013.8
20260506093516 60 249 0.9 5.2 0.00 0.00 0.00 54 1013.8
20260506093029 59 273 0.9 5.2 0.00 0.00 0.00 53 1013.8
20260506092513 57 319 1.7 4.3 0.00 0.00 0.00 56 1013.8
20260506092013 56 0 0.9 7.0 0.00 0.00 0.00 59 1013.7
20260506091530 57 317 2.6 7.0 0.00 0.00 0.00 59 1013.8
20260506091018 57 0 0.0 4.3 0.00 0.00 0.00 57 1013.8
20260506090515 57 0 0.0 7.0 0.00 0.00 0.00 58 1013.8
20260506090033 57 317 2.6 7.0 0.00 0.00 0.00 56 1013.9
20260506085514 57 0 1.7 7.0 0.00 0.00 0.00 60 1013.7
20260506085015 57 103 0.0 7.0 0.00 0.00 0.00 63 1013.9
20260506084539 57 0 1.7 7.0 0.00 0.00 0.00 58 1013.9
20260506084013 56 0 0.9 6.1 0.00 0.00 0.00 62 1013.7
20260506083516 55 56 1.7 6.1 0.00 0.00 0.00 61 1013.8
20260506083032 55 0 0.0 6.1 0.00 0.00 0.00 61 1013.8
20260506082514 55 73 1.7 6.1 0.00 0.00 0.00 62 1013.8
20260506082011 54 104 0.0 6.1 0.00 0.00 0.00 61 1013.8
20260506081535 54 0 0.9 6.1 0.00 0.00 0.00 63 1013.8
20260506081014 54 92 1.7 5.2 0.00 0.00 0.00 64 1013.8
20260506080514 54 88 0.9 5.2 0.00 0.00 0.00 63 1013.8
20260506073519 52 55 2.6 7.8 0.00 0.00 0.00 67 1013.7
20260506073030 52 105 3.5 7.8 0.00 0.00 0.00 68 1013.7
20260506072517 51 78 2.6 7.0 0.00 0.00 0.00 70 1013.7
20260506072017 51 92 1.7 7.8 0.00 0.00 0.00 70 1013.6
20260506071532 51 67 2.6 7.8 0.00 0.00 0.00 69 1013.6
20260506071016 51 82 0.9 8.7 0.00 0.00 0.00 71 1013.7
20260506070516 50 75 3.5 8.7 0.00 0.00 0.00 70 1013.7
20260506062517 48 83 1.7 7.0 0.00 0.00 0.00 73 1013.5
20260506062016 47 101 1.7 7.0 0.00 0.00 0.00 74 1013.4
20260506061534 47 96 3.5 7.8 0.00 0.00 0.00 74 1013.5
20260506061019 46 82 3.5 7.8 0.00 0.00 0.00 74 1013.3
20260506060517 46 80 2.6 9.6 0.00 0.00 0.00 75 1013.3
20260506051016 44 101 1.7 5.2 0.00 0.00 0.00 78 1013.0
20260506050516 44 103 2.6 7.0 0.00 0.00 0.00 78 1013.0
20260506045016 44 101 2.6 7.8 0.00 0.00 0.00 78 1012.9
20260506044532 44 106 1.7 7.8 0.00 0.00 0.00 78 1012.9
20260506044016 44 92 2.6 7.0 0.00 0.00 0.00 77 1012.9
20260506043518 44 111 3.5 8.7 0.00 0.00 0.00 77 1012.9
20260506043035 44 93 3.5 8.7 0.00 0.00 0.00 77 1012.7
20260506042517 44 94 2.6 8.7 0.00 0.00 0.00 76 1012.9
20260506042015 45 96 2.6 7.8 0.00 0.00 0.00 76 1012.9
20260506041550 45 82 2.6 7.8 0.00 0.00 0.00 75 1012.8
20260506041016 45 109 3.5 7.8 0.00 0.00 0.00 75 1012.8
20260506040517 45 103 3.5 8.7 0.00 0.00 0.00 74 1012.9
20260506040034 45 94 4.3 8.7 0.00 0.00 0.00 74 1012.9
20260506035518 45 86 2.6 7.0 0.00 0.00 0.00 74 1012.9
20260506035018 45 83 2.6 7.0 0.00 0.00 0.00 74 1013.0
20260506034546 45 82 3.5 7.0 0.00 0.00 0.00 75 1013.0
20260506034020 45 88 2.6 7.0 0.00 0.00 0.00 74 1012.9
20260506033519 45 76 1.7 7.8 0.00 0.00 0.00 75 1013.0
20260506033030 45 78 2.6 7.8 0.00 0.00 0.00 75 1013.1
20260506032516 45 76 4.3 7.8 0.00 0.00 0.00 75 1013.1
20260506032018 45 85 3.5 7.8 0.00 0.00 0.00 75 1013.1
20260506031532 45 80 3.5 7.0 0.00 0.00 0.00 75 1013.1
20260506031017 45 78 1.7 4.3 0.00 0.00 0.00 74 1013.1
20260506030517 45 0 0.9 4.3 0.00 0.00 0.00 75 1013.1
20260506030038 45 69 1.7 4.3 0.00 0.00 0.00 75 1013.1
20260506025519 45 81 0.9 5.2 0.00 0.00 0.00 75 1013.1
20260506025016 46 84 1.7 5.2 0.00 0.00 0.00 74 1013.2
20260506024536 46 79 0.9 4.3 0.00 0.00 0.00 73 1013.1
20260506024017 46 74 1.7 4.3 0.00 0.00 0.00 72 1013.2
20260506023519 47 83 1.7 5.2 0.00 0.00 0.00 71 1013.1
20260506023034 47 84 1.7 7.8 0.00 0.00 0.00 70 1013.2
20260506022516 47 53 1.7 9.6 0.00 0.00 0.00 70 1013.1
20260506022016 47 43 3.5 9.6 0.00 0.00 0.00 70 1013.2
20260506021532 47 49 3.5 9.6 0.00 0.00 0.00 70 1013.2
20260506021016 47 55 2.6 7.8 0.00 0.00 0.00 70 1013.3
20260506020521 47 44 2.6 7.0 0.00 0.00 0.00 71 1013.3
20260506020030 46 65 1.7 4.3 0.00 0.00 0.00 73 1013.3
20260506015517 46 80 0.9 5.2 0.00 0.00 0.00 73 1013.2
20260506015017 46 84 1.7 6.1 0.00 0.00 0.00 72 1013.3
20260506014532 46 84 2.6 7.0 0.00 0.00 0.00 72 1013.3
20260506014016 47 85 1.7 7.0 0.00 0.00 0.00 72 1013.3
20260506013516 47 80 1.7 6.1 0.00 0.00 0.00 72 1013.3
20260506013043 47 89 1.7 5.2 0.00 0.00 0.00 71 1013.4
20260506012517 47 84 0.9 5.2 0.00 0.00 0.00 71 1013.3
20260506012017 47 81 1.7 5.2 0.00 0.00 0.00 70 1013.4
20260506011536 48 75 2.6 6.1 0.00 0.00 0.00 69 1013.4
20260506011016 48 68 1.7 6.1 0.00 0.00 0.00 69 1013.3
20260506010516 47 64 2.6 6.1 0.00 0.00 0.00 70 1013.3
20260506010036 47 57 2.6 5.2 0.00 0.00 0.00 71 1013.4
20260506005517 47 74 1.7 5.2 0.00 0.00 0.00 71 1013.5
20260506005016 47 86 1.7 5.2 0.00 0.00 0.00 71 1013.7
20260506004531 47 84 1.7 6.1 0.00 0.00 0.00 71 1013.6
20260506004016 47 84 1.7 6.1 0.00 0.00 0.00 71 1013.6
20260506003516 47 85 2.6 6.1 0.00 0.00 0.00 71 1013.6
20260506003030 47 76 2.6 6.1 0.00 0.00 0.00 70 1013.6
20260506002515 48 78 0.9 6.1 0.00 0.00 0.00 70 1013.6
20260506002016 48 69 1.7 3.5 0.00 0.00 0.00 70 1013.7
20260506001530 48 71 0.9 5.2 0.00 0.00 0.00 70 1013.6
20260506001015 48 78 0.9 7.8 0.00 0.00 0.00 69 1013.7
20260506000516 49 59 1.7 7.8 0.00 0.00 0.00 68 1013.6
20260506000032 48 71 2.6 7.8 0.00 0.00 0.00 68 1013.5
20260505235516 48 50 2.6 7.8 0.00 0.00 0.00 69 1013.6
20260505235019 48 57 1.7 7.8 0.00 0.00 0.00 68 1013.6
20260505234530 49 66 2.6 7.8 0.00 0.00 0.00 68 1013.7
20260505234019 49 63 2.6 7.0 0.00 0.00 0.00 68 1013.5
20260505233516 49 42 2.6 7.0 0.00 0.00 0.00 68 1013.5
20260505233032 49 76 1.7 4.3 0.00 0.00 0.00 67 1013.4
20260505232516 49 70 0.9 6.1 0.00 0.00 0.00 67 1013.5
20260505232016 49 0 0.9 6.1 0.00 0.00 0.00 66 1013.4
20260505231534 50 0 0.0 7.0 0.00 0.00 0.00 66 1013.3
20260505231015 49 45 1.7 7.0 0.00 0.00 0.00 66 1013.3
20260505230515 49 38 0.9 7.0 0.00 0.00 0.00 66 1013.3
20260505230045 49 46 2.6 7.0 0.00 0.00 0.00 66 1013.3
20260505225514 49 51 1.7 7.8 0.00 0.00 0.00 66 1013.2
20260505225014 49 15 3.5 8.7 0.00 0.00 0.00 66 1013.3
20260505224533 49 40 2.6 8.7 0.00 0.00 0.00 67 1013.3
20260505224016 48 47 3.5 8.7 0.00 0.00 0.00 69 1013.3
20260505223512 48 15 2.6 4.3 0.00 0.00 0.00 70 1013.3
20260505223038 48 22 0.9 4.3 0.00 0.00 0.00 71 1013.3
20260505222527 48 13 1.7 4.3 0.00 0.00 0.00 71 1013.5
20260505222015 48 15 0.9 3.5 0.00 0.00 0.00 71 1013.5
20260505221534 48 42 0.9 2.6 0.00 0.00 0.00 70 1013.5
20260505221020 48 0 0.0 4.3 0.00 0.00 0.00 70 1013.6
20260505220516 49 40 0.9 4.3 0.00 0.00 0.00 70 1013.6
20260505220047 49 17 1.7 7.0 0.00 0.00 0.00 70 1013.6
20260505215516 49 12 1.7 7.0 0.00 0.00 0.00 70 1013.6
20260505215016 49 26 3.5 7.0 0.00 0.00 0.00 69 1013.6
20260505214536 49 350 1.7 7.0 0.00 0.00 0.00 68 1013.5
20260505214013 49 336 2.6 7.0 0.00 0.00 0.00 67 1013.6
20260505213518 50 352 3.5 7.8 0.00 0.00 0.00 66 1013.7
20260505213034 50 344 2.6 7.8 0.00 0.00 0.00 64 1013.6
20260505212513 50 19 2.6 10.4 0.00 0.00 0.00 62 1013.6
20260505212015 51 360 3.5 10.4 0.00 0.00 0.00 61 1013.5
20260505211532 51 325 3.5 10.4 0.00 0.00 0.00 60 1013.6
20260505211019 50 19 0.9 4.3 0.00 0.00 0.00 61 1013.6
20260505210515 50 0 0.0 3.5 0.00 0.00 0.00 62 1013.5
20260505210035 51 44 0.9 3.5 0.00 0.00 0.00 61 1013.3
20260505205513 51 0 0.9 2.6 0.00 0.00 0.00 60 1013.5
20260505205015 51 350 0.9 2.6 0.00 0.00 0.00 60 1013.5
20260505204532 51 352 0.9 2.6 0.00 0.00 0.00 59 1013.3
20260505204016 52 360 0.0 1.7 0.00 0.00 0.00 59 1013.4